Location: Newark
(39.5667°N, 8.9833°E)
Time: 05:50:29
(UTC+00:00)

LightSail 2 - Visible Passes

Search period start: 23 September 2019 00:00
Search period end: 03 October 2019 00:00
Orbit: 701 x 730 km, 24.0° (Epoch: 21 September)

Date Brightness Start Highest point End Pass type
(mag) Time Alt. Az. Time Alt. Az. Time Alt. Az.
23 Sep 7.4 04:36:17 10° SSW 04:38:33 13° S 04:40:49 10° SSE visible
24 Sep 7.3 03:39:56 11° SSW 03:41:32 12° S 03:43:27 10° SSE visible
25 Sep 7.3 04:26:49 10° SSW 04:29:11 13° S 04:31:35 10° SSE visible
26 Sep 7.2 03:31:33 13° S 03:32:09 13° S 03:34:31 10° SSE visible
27 Sep 7.3 04:17:47 10° SSW 04:19:47 12° S 04:21:46 10° SSE visible
28 Sep 7.3 03:23:11 13° S 03:23:11 13° S 03:25:01 10° SSE visible
30 Sep 7.5 03:14:51 10° S 03:14:51 10° S 03:14:52 10° S visible
